Simultaneous Nadir Overpasses (SNOs) Predictions

Prediction of SNOs between AQUA and NOAA-19 Satellite Orbit:

Table of predicted SNOs for the next 14.0 days since TLE Epoch: 11/14/2015
Index Date (AQUA) Time (AQUA) Lat,Lon (AQUA) SZA (AQUA ) Date (NOAA-19) Time (NOAA-19) Lat,Lon (NOAA-19) SZA (NOAA-19 ) Distance(km) Time Diff (sec)
1 11/15/2015 02:53:10 80.56, 100.88 100.25 11/15/2015 02:52:39 80.55, 101.04 100.25 2.95 31
2 11/15/2015 03:42:35 -80.53, -91.12 79.80 11/15/2015 03:43:37 -80.53, -91.25 79.81 2.50 62
3 11/17/2015 08:26:51 -80.55,-162.42 79.20 11/17/2015 08:26:52 -80.55,-162.50 79.19 1.67 1
4 11/19/2015 13:11:07 -80.58, 126.17 78.61 11/19/2015 13:10:07 -80.58, 126.20 78.59 0.51 60
5 11/19/2015 14:00:32 80.53, -65.64 101.31 11/19/2015 14:01:06 80.53, -65.60 101.29 0.78 34
6 11/21/2015 18:44:48 80.58,-137.19 101.89 11/21/2015 18:44:21 80.57,-137.15 101.90 0.76 27
7 11/21/2015 19:34:13 -80.53, 30.90 78.18 11/21/2015 19:35:20 -80.53, 30.86 78.20 0.75 67
8 11/24/2015 00:18:28 -80.56, -40.41 77.66 11/24/2015 00:18:35 -80.56, -40.52 77.64 2.15 7
9 11/26/2015 05:02:43 -80.59,-111.82 77.15 11/26/2015 05:01:50 -80.60,-111.94 77.11 2.34 53
10 11/26/2015 05:52:08 80.55, 56.28 102.78 11/26/2015 05:52:47 80.55, 56.30 102.77 0.49 39
11 11/28/2015 10:36:23 80.59, -15.27 103.28 11/28/2015 10:36:02 80.60, -15.38 103.30 1.85 21




NCC Satellite Simultaneous Nadir Overpasses (SNOs) Prediction Service
